Fort Loudoun Lake Weather Center

Moon Phase Calendar



Fort Loudoun Lake Water Level
Online Cameras

 


      

Current Conditions in Louisville
7/22/2024 5:07:15 PM

84°F
Feels Like 90
Clouds
Humidity
66%
Pressure
29.94"
Wind
10.4 mph (S)
Dew Point
72°F
UV Index
4/10 (Moderate)
Visibility
6 mi

Hourly Forecast

Date & Time Mon, Jul 22
5:00 PM
Mon, Jul 22
6:00 PM
Mon, Jul 22
7:00 PM
Mon, Jul 22
8:00 PM
Mon, Jul 22
9:00 PM
Mon, Jul 22
10:00 PM
Mon, Jul 22
11:00 PM
Tue, Jul 23
12:00 AM
Tue, Jul 23
1:00 AM
Tue, Jul 23
2:00 AM
Tue, Jul 23
3:00 AM
Tue, Jul 23
4:00 AM
Tue, Jul 23
5:00 AM
Tue, Jul 23
6:00 AM
Tue, Jul 23
7:00 AM
Tue, Jul 23
8:00 AM
Tue, Jul 23
9:00 AM
Tue, Jul 23
10:00 AM
Tue, Jul 23
11:00 AM
Tue, Jul 23
12:00 PM
Tue, Jul 23
1:00 PM
Tue, Jul 23
2:00 PM
Tue, Jul 23
3:00 PM
Tue, Jul 23
4:00 PM
Tue, Jul 23
5:00 PM
Tue, Jul 23
6:00 PM
Tue, Jul 23
7:00 PM
Tue, Jul 23
8:00 PM
Tue, Jul 23
9:00 PM
Tue, Jul 23
10:00 PM
Tue, Jul 23
11:00 PM
Wed, Jul 24
12:00 AM
Wed, Jul 24
1:00 AM
Wed, Jul 24
2:00 AM
Wed, Jul 24
3:00 AM
Wed, Jul 24
4:00 AM
Wed, Jul 24
5:00 AM
Wed, Jul 24
6:00 AM
Wed, Jul 24
7:00 AM
Wed, Jul 24
8:00 AM
Wed, Jul 24
9:00 AM
Wed, Jul 24
10:00 AM
Wed, Jul 24
11:00 AM
Wed, Jul 24
12:00 PM
Wed, Jul 24
1:00 PM
Wed, Jul 24
2:00 PM
Wed, Jul 24
3:00 PM
Wed, Jul 24
4:00 PM
Condition
Clouds

Clouds

Clouds

Clouds

Rain

Clouds

Clouds

Clouds

Rain

Rain

Clouds

Clouds

Clouds

Rain

Rain

Rain

Clouds

Clouds

Clouds

Rain

Rain

Rain

Clouds

Clouds

Clouds

Rain

Rain

Rain

Rain

Clouds

Rain

Rain

Clouds

Rain

Rain

Rain

Rain

Clouds

Clouds

Clouds

Rain

Rain

Rain

Rain

Rain

Rain

Rain

Rain
Temperature 84°F85°F84°F82°F77°F73°F72°F71°F69°F68°F68°F68°F68°F67°F67°F69°F71°F74°F80°F82°F82°F80°F78°F83°F77°F73°F73°F72°F71°F71°F70°F70°F70°F69°F69°F69°F69°F69°F69°F70°F70°F70°F70°F71°F72°F72°F71°F72°F
Feels Like 90°F89°F88°F85°F78°F74°F73°F72°F70°F69°F69°F69°F68°F68°F68°F70°F72°F76°F80°F85°F86°F83°F79°F86°F78°F74°F74°F73°F72°F72°F71°F71°F71°F71°F70°F70°F70°F70°F70°F71°F71°F71°F71°F72°F74°F73°F73°F73°F
Cloudiness 75%77%79%84%41%43%62%72%71%61%14%57%72%79%83%86%100%100%99%99%99%99%99%100%100%100%100%100%99%94%96%97%98%98%100%100%100%100%100%100%100%100%100%100%100%100%100%100%
Visibility 6 mi6 mi6 mi6 mi6 mi6 mi6 mi6 mi6 mi6 mi6 mi6 mi6 mi6 mi6 mi6 mi6 mi6 mi6 mi6 mi6 mi6 mi6 mi6 mi6 mi6 mi6 mi6 mi6 mi6 mi6 mi6 mi6 mi6 mi6 mi6 mi6 mi6 mi6 mi6 mi6 mi6 mi6 mi6 mi6 mi6 mi6 mi6 mi
Precipitation 0%0%0%7%76%74%64%59%100%100%0%0%0%20%89%91%0%0%0%40%56%61%27%12%6%28%37%44%63%11%32%49%43%56%100%100%100%80%80%79%72%92%92%91%90%95%96%100%
Humidity 66%62%61%65%76%83%85%86%93%94%95%95%95%96%97%95%91%84%68%64%63%68%74%58%71%82%84%88%90%91%92%92%93%95%98%99%99%99%98%98%97%98%98%97%93%95%96%94%
Dew Point 72°F70°F69°F69°F69°F68°F67°F67°F67°F67°F66°F66°F66°F66°F66°F67°F68°F69°F68°F68°F68°F68°F68°F67°F67°F68°F68°F69°F68°F68°F68°F68°F68°F68°F68°F68°F69°F69°F69°F69°F69°F69°F70°F70°F70°F70°F70°F70°F
Pressure 29.94"29.94"29.94"29.94"29.97"29.97"29.97"30"30"30"30"30"30"30.03"30.03"30.06"30.06"30.06"30.06"30.06"30.06"30.06"30.06"30.06"30.06"30.06"30.06"30.09"30.09"30.09"30.12"30.12"30.12"30.12"30.12"30.12"30.12"30.12"30.15"30.15"30.18"30.21"30.21"30.21"30.21"30.21"30.21"30.21"
Wind Speed 10.4 mph10.2 mph8.6 mph6.2 mph4.6 mph3.7 mph3.5 mph2.8 mph3.4 mph2.8 mph2.4 mph2.4 mph1.9 mph1.3 mph2.2 mph2.5 mph3.1 mph3.3 mph4.9 mph6.5 mph7.8 mph7.4 mph6.5 mph8.4 mph8.8 mph3.8 mph0.4 mph2.3 mph2.8 mph0.8 mph2.2 mph3.2 mph3.4 mph4.2 mph4.5 mph3.5 mph3.4 mph3.3 mph3.4 mph3.3 mph3.9 mph4 mph4.1 mph3.9 mph3.9 mph4.6 mph4.2 mph5.8 mph
Wind
Direction
236°
SW
226°
SW
212°
SSW
213°
SSW
242°
WSW
237°
WSW
205°
SSW
204°
SSW
230°
SW
223°
SW
217°
SW
208°
SSW
202°
SSW
192°
SSW
221°
SW
189°
S
258°
WSW
236°
SW
220°
SW
234°
SW
255°
WSW
271°
W
285°
WNW
285°
WNW
303°
WNW
316°
NW
177°
S
181°
S
135°
SE
227°
SW
233°
SW
215°
SW
228°
SW
225°
SW
238°
WSW
234°
SW
247°
WSW
226°
SW
213°
SSW
206°
SSW
228°
SW
229°
SW
223°
SW
240°
WSW
251°
WSW
275°
W
246°
WSW
217°
SW

Daily Forecast

Date High Low Precip. Humidity
Today
Jul 22

Rain
85 °F
67 °F
100%
58%
Tuesday
Jul 23

Rain
83 °F
67 °F
100%
63%
Wednesday
Jul 24

Rain
74 °F
69 °F
100%
93%
Thursday
Jul 25

Rain
76 °F
67 °F
100%
90%
Friday
Jul 26

Rain
81 °F
68 °F
66%
94%
Saturday
Jul 27

Rain
86 °F
68 °F
100%
61%
Sunday
Jul 28

Rain
90 °F
69 °F
100%
67%
Monday
Jul 29

Rain
81 °F
73 °F
100%
74%
Tuesday
Jul 30

Rain
89 °F
69 °F
99%
64%
Wednesday
Jul 31

Rain
92 °F
71 °F
100%
46%
Thursday
Aug 1

Rain
94 °F
71 °F
99%
44%
Friday
Aug 2

Rain
93 °F
70 °F
100%
55%
Saturday
Aug 3

Rain
93 °F
70 °F
100%
50%
Sunday
Aug 4

Rain
95 °F
73 °F
100%
54%
Monday
Aug 5

Rain
95 °F
71 °F
100%
56%
Tuesday
Aug 6

Rain
99 °F
74 °F
100%
44%

Temperature 8-14 Day Outlook



Precipitation 8-14 Day Outlook




Quick Links
Fort Loudoun Lake News
Fort Loudoun Lake Photos
Fort Loudoun Lake Videos




About Us
Contact Us
Site Map
Search Site
Advertise With Us
   
www.FortLoudoun.info
THE FORT LOUDOUN LAKE WEBSITE

Copyright 2024, Lakes Online
Privacy    |    Legal